{"data":{"norad_id":48801,"epoch":"2026-05-25T01:38:53.024928Z","epoch_age_seconds":59147,"freshness":"FRESH","line1":"1 48801U 21045AL  26145.06866927 -.00000025  00000+0 -99431-4 0  9993","line2":"2 48801  87.8996 263.8006 0001957  99.3012 260.8339 13.15546652241265","mean_motion":13.15546652,"eccentricity":0.0001957,"inclination_deg":87.8996,"raan_deg":263.8006,"arg_perigee_deg":99.3012,"mean_anomaly_deg":260.8339,"bstar":-9.9431e-5,"rev_number":24126,"period_min":109.46020027574,"perigee_km":1200.2946686719,"apogee_km":1203.2614474256,"semimajor_km":7579.9150580488,"source":"CELESTRAK","updated_at":"2026-05-25T13:38:22.449004Z"}}